[[{"header":{"parameterUnit":"m.s-1","parameterCategory":1,"la1":30.2991,"la2":30.254,"lo1":-89.0895,"lo2":-89.0444,"dy":0.0017,"dx":0.0017,"nx":28,"ny":28,"refTime":"2023-07-21T03:00:00:Z","depth":0,"parameterNumber":2,"parameterNumberName":"U-component_of_WINDS"},"data":[0,0,0,0,0,0,0,0,0,0,0,0,0,0,0,0,0,0,0,0,0,0,0,0,0,0,0,0,0,0,0,0,0,0,0,0,0,0,0,0,0,0,0,0,0,0,0,0,0,0,0,0,0,0,0,0,0,0,1.3179,1.318,0,1.3302,1.3303,1.3305,1.3336,1.3335,1.3334,1.3334,1.3459,1.3463,1.3467,0,0,0,0,0,0,0,0,0,0,0,0,0,1.2969,1.2972,1.3179,1.318,1.3182,1.3302,1.3303,1.3305,1.3336,1.3335,1.3334,1.3333,1.3458,1.3463,1.3468,0,0,0,0,0,0,0,0,0,0,0,0,0,1.3073,1.2974,1.3178,1.3212,1.3216,1.3301,1.3303,1.3305,1.3336,1.3335,1.3334,1.3333,1.3456,1.3462,1.3468,1.3529,0,0,1.3487,1.349,0,0,0,0,0,0,0,0,1.3067,1.308,1.3205,1.3209,1.3214,1.3302,1.3275,1.3381,1.3337,1.3291,1.3334,1.3332,1.3408,1.3418,1.3444,1.3535,1.3541,1.3488,1.3491,1.3494,1.3496,0,0,0,0,0,0,0,1.3059,1.3075,1.3227,1.3207,1.3213,1.322,1.3233,1.3296,1.3354,1.3294,1.3297,1.3311,1.341,1.3438,1.3447,1.3543,1.3487,1.3493,1.3497,1.3499,1.3689,1.369,0,0,0,0,0,0,1.3047,1.3069,1.3223,1.3231,1.3136,1.3225,1.324,1.3275,1.3354,1.3365,1.3312,1.3312,1.3428,1.344,1.3451,1.3527,1.3494,1.35,1.3503,1.3687,1.3689,1.369,0,0,0,0,0,0,1.3042,1.306,1.3218,1.3151,1.3171,1.323,1.3269,1.3278,1.3306,1.3367,1.3378,1.3329,1.3427,1.3443,1.3509,1.3532,1.3502,1.3508,1.3686,1.3688,1.369,1.3679,0,0,0,0,0,0,1.3036,1.3058,1.3082,1.3151,1.3175,1.3275,1.3271,1.3282,1.3316,1.3318,1.3386,1.3396,1.3428,1.35,1.3515,1.354,1.3513,1.3684,1.3687,1.3689,1.3677,1.368,1.3682,0,0,0,0,0,1.3028,1.3074,1.3083,1.3102,1.3206,1.3276,1.329,1.3325,1.3318,1.3342,1.3381,1.3394,1.3527,1.3507,1.3524,1.355,1.3683,1.3686,1.3689,1.3676,1.3679,1.3682,0,0,0,0,0,0,1.3007,1.3084,1.3095,1.3165,1.3214,1.3281,1.3313,1.3328,1.3379,1.3378,1.342,1.3435,1.3499,1.3532,1.3508,1.3613,1.3605,1.3611,1.3589,1.3593,1.3595,1.3586,1.3518,0,0,0,0,0,1.301,1.3061,1.3125,1.3181,1.3205,1.3254,1.3286,1.3309,1.3361,1.3382,1.3426,1.3476,1.3529,1.3563,1.3615,1.3682,1.3697,1.3709,1.3711,1.3713,1.3718,1.3755,1.3761,1.3701,1.3701,1.3701,0,0,1.3018,1.3066,1.3096,1.3178,1.3218,1.3269,1.3272,1.3325,1.3363,1.339,1.3455,1.3489,1.3548,1.3614,1.3646,1.3644,1.3738,1.3717,1.3718,1.3722,1.3759,1.3764,1.3769,1.3703,1.3702,1.3702,0,0,1.3057,1.3099,1.315,1.319,1.3251,1.3284,1.3296,1.3361,1.3385,1.3451,1.3472,1.3517,1.3608,1.3648,1.368,1.3734,1.3747,1.375,1.3763,1.3798,1.3803,1.3807,1.3825,1.3831,1.3755,1.3755,1.3755,0,1.3058,1.3136,1.3173,1.3226,1.3261,1.3288,1.3338,1.3376,1.345,1.3474,1.347,1.3583,1.3625,1.3701,1.3713,1.3739,1.3753,1.3742,1.3799,1.3804,1.3809,1.3826,1.3833,1.3755,1.3755,1.3755,1.3755,0,1.3134,1.3187,1.3221,1.3292,1.3331,1.3382,1.3427,1.3461,1.3481,1.3514,1.358,1.363,1.3692,1.3712,1.3732,1.3791,1.3787,1.3791,1.3784,1.3814,1.3831,1.3838,1.3754,1.3754,1.3754,1.3754,0,0,1.3163,1.3254,1.3266,1.3298,1.3367,1.3409,1.3461,1.3522,1.355,1.3601,1.3645,1.372,1.3724,1.376,1.3785,1.3816,1.3853,1.3816,1.3818,1.382,1.392,1.3916,1.3923,1.3863,1.3864,1.3865,1.3914,0,1.321,1.3304,1.3339,1.3416,1.3465,1.3491,1.3536,1.3583,1.3615,1.3661,1.3696,1.3748,1.375,1.3772,1.3804,1.3842,1.3874,1.3839,1.3903,1.3905,1.3887,1.3932,1.3928,1.3972,1.3921,1.3923,1.3924,0,1.3277,1.3328,1.341,1.3472,1.3494,1.3534,1.3592,1.3636,1.3689,1.371,1.3751,1.3773,1.3828,1.3817,1.3892,1.3868,1.3896,1.3919,1.3922,1.3928,1.3915,1.3939,1.3987,1.3993,1.3935,1.3934,1.3933,0,1.3288,1.3378,1.3438,1.3465,1.354,1.3567,1.3599,1.3651,1.3685,1.3736,1.3758,1.3814,1.3845,1.3888,1.3924,1.3914,1.3996,1.3989,1.4014,1.4013,1.4029,1.4027,1.4082,1.4049,1.4049,1.4049,1.4049,0,1.3336,1.3385,1.3444,1.3481,1.3536,1.3575,1.3628,1.3662,1.3708,1.3752,1.3778,1.3818,1.3864,1.391,1.3939,1.3996,1.401,1.4028,1.4035,1.4025,1.4022,1.4043,1.4041,1.4051,1.405,1.405,1.405,0,1.3358,1.3399,1.3466,1.3531,1.3549,1.3586,1.3641,1.3678,1.3711,1.3765,1.378,1.3832,1.3887,1.3928,1.4,1.4019,1.4079,1.4087,1.4061,1.4065,1.4087,1.4084,1.4156,1.4167,1.4127,1.4128,1.4128,0,1.3385,1.3423,1.3492,1.3523,1.3555,1.3605,1.3639,1.3679,1.3714,1.3778,1.3806,1.3863,1.3911,1.3997,1.4041,1.4095,1.4104,1.4125,1.4112,1.4101,1.4103,1.41,1.4103,1.4127,1.4127,1.4127,1.4127,0,1.3428,1.3447,1.3496,1.3553,1.3593,1.364,1.3686,1.371,1.3758,1.3796,1.3853,1.389,1.3962,1.4018,1.4077,1.4109,1.4126,1.4131,1.414,1.413,1.4112,1.4121,1.4065,1.4129,1.4129,1.4129,1.4129,1.4129,1.3453,1.3487,1.3541,1.3595,1.3634,1.3677,1.3714,1.3751,1.38,1.3862,1.3883,1.3941,1.3993,1.4073,1.4106,1.4152,1.4152,1.4164,1.4167,1.4169,1.4168,1.4106,1.4163,1.4163,1.4163,1.4163,1.4163,0,1.3497,1.3532,1.3582,1.3646,1.3688,1.37,1.3752,1.3786,1.3837,1.3884,1.3931,1.3995,1.4049,1.4097,1.4153,1.418,1.4189,1.4194,1.4192,1.4199,1.4166,1.4152,1.4185,1.4185,1.4185,1.4185,1.4185,1.4185,1.3524,1.3583,1.3608,1.3686,1.3722,1.3779,1.3807,1.3847,1.3884,1.3955,1.4,1.4031,1.4078,1.4138,1.4188,1.42,1.4219,1.4221,1.4235,1.4204,1.4201,1.4198,1.4186,1.4225,1.4225,1.4264,1.4265,1.4265]},{"header":{"parameterUnit":"m.s-1","parameterCategory":1,"la1":30.2991,"la2":30.254,"lo1":-89.0895,"lo2":-89.0444,"dy":0.0017,"dx":0.0017,"nx":28,"ny":28,"refTime":"2023-07-21T03:00:00:Z","depth":0,"parameterNumber":3,"parameterNumberName":"V-component_of_WINDS"},"data":[0,0,0,0,0,0,0,0,0,0,0,0,0,0,0,0,0,0,0,0,0,0,0,0,0,0,0,0,0,0,0,0,0,0,0,0,0,0,0,0,0,0,0,0,0,0,0,0,0,0,0,0,0,0,0,0,0,0,5.8925,5.8924,0,5.8875,5.8875,5.8874,5.8777,5.8775,5.8774,5.8772,5.8724,5.8724,5.8725,0,0,0,0,0,0,0,0,0,0,0,0,0,5.8938,5.8938,5.8925,5.8924,5.8923,5.8875,5.8875,5.8874,5.8778,5.8775,5.8773,5.8771,5.8724,5.8724,5.8725,0,0,0,0,0,0,0,0,0,0,0,0,0,5.8915,5.8938,5.8925,5.8869,5.8864,5.8876,5.8875,5.8874,5.8778,5.8775,5.8772,5.877,5.8724,5.8724,5.8725,5.8787,0,0,5.8727,5.8728,0,0,0,0,0,0,0,0,5.8916,5.8914,5.8878,5.8873,5.8867,5.8829,5.8862,5.8845,5.8779,5.8811,5.8772,5.8768,5.8762,5.8759,5.8756,5.8785,5.8783,5.8728,5.8728,5.8728,5.8729,0,0,0,0,0,0,0,5.8918,5.8916,5.8905,5.8878,5.8871,5.8848,5.8842,5.8858,5.8803,5.8808,5.8801,5.8796,5.8758,5.8756,5.8754,5.8782,5.8728,5.8728,5.8729,5.8729,5.886,5.8862,0,0,0,0,0,0,5.8927,5.8918,5.8907,5.8904,5.8885,5.885,5.8843,5.8845,5.8803,5.8793,5.8799,5.8792,5.8756,5.8754,5.8752,5.8822,5.8728,5.8729,5.8729,5.8857,5.886,5.8863,0,0,0,0,0,0,5.8928,5.8927,5.8909,5.8909,5.8905,5.8853,5.8856,5.8845,5.8842,5.8795,5.8785,5.8806,5.8753,5.8751,5.8779,5.8819,5.8729,5.873,5.8853,5.8858,5.8862,5.8961,0,0,0,0,0,0,5.8929,5.8928,5.895,5.891,5.8905,5.8936,5.8858,5.8846,5.8844,5.8834,5.88,5.8791,5.8751,5.8778,5.878,5.8818,5.8731,5.8849,5.8855,5.886,5.8954,5.8969,5.8981,0,0,0,0,0,5.8929,5.8981,5.8952,5.8951,5.8932,5.8938,5.8935,5.8887,5.8847,5.887,5.884,5.8793,5.8815,5.8782,5.8783,5.8822,5.8846,5.8853,5.886,5.8948,5.8966,5.8981,0,0,0,0,0,0,5.9028,5.8975,5.8942,5.8982,5.8965,5.8922,5.8948,5.8907,5.8902,5.8894,5.8835,5.8828,5.8864,5.8846,5.8811,5.888,5.8823,5.883,5.889,5.8906,5.8919,5.8923,5.8731,0,0,0,0,0,5.9055,5.9063,5.9016,5.9056,5.905,5.9001,5.9002,5.8966,5.8947,5.894,5.8911,5.8895,5.8898,5.8901,5.8902,5.8952,5.8943,5.8979,5.8993,5.9004,5.901,5.9035,5.9051,5.8886,5.8886,5.8885,0,0,5.9109,5.9081,5.909,5.9075,5.9058,5.9069,5.8996,5.901,5.9018,5.8942,5.8966,5.8945,5.8923,5.8962,5.8978,5.8948,5.9054,5.9012,5.9022,5.9022,5.9044,5.9059,5.9073,5.889,5.8889,5.8889,0,0,5.9214,5.9194,5.9224,5.9208,5.9183,5.915,5.9158,5.9121,5.9104,5.9127,5.907,5.9079,5.9086,5.9072,5.9066,5.9167,5.9123,5.9169,5.9239,5.9263,5.9276,5.9287,5.9323,5.9336,5.9176,5.9176,5.9176,0,5.9285,5.9298,5.9245,5.9263,5.9259,5.919,5.9221,5.9208,5.9185,5.9184,5.9151,5.9158,5.9138,5.9173,5.9197,5.9195,5.9202,5.9172,5.9279,5.9289,5.9299,5.9332,5.9345,5.9182,5.9181,5.9181,5.918,0,5.9386,5.9397,5.9425,5.9403,5.9401,5.9426,5.9378,5.9383,5.9348,5.9319,5.9344,5.9318,5.9312,5.9318,5.9284,5.9348,5.933,5.9289,5.923,5.9321,5.9351,5.9363,5.919,5.9188,5.9186,5.9185,0,0,5.955,5.9499,5.951,5.9499,5.9467,5.9474,5.9497,5.9489,5.9495,5.9482,5.9498,5.9506,5.9468,5.9461,5.9425,5.9448,5.9528,5.9403,5.9402,5.9426,5.9596,5.9626,5.9642,5.9499,5.9502,5.9503,5.9597,0,5.9647,5.968,5.9633,5.9677,5.9686,5.9622,5.9641,5.9624,5.9598,5.9602,5.9574,5.9579,5.9529,5.9524,5.9543,5.9514,5.9561,5.9507,5.9514,5.9515,5.952,5.9657,5.9689,5.9779,5.9609,5.9611,5.9612,0,5.9763,5.9754,5.9799,5.9764,5.9766,5.9784,5.9773,5.9779,5.9758,5.9738,5.9731,5.9688,5.9708,5.9652,5.9679,5.9643,5.9643,5.963,5.9632,5.963,5.9568,5.9658,5.9807,5.982,5.963,5.9629,5.9628,0,5.9877,5.9877,5.9903,5.9896,5.9856,5.987,5.9854,5.9831,5.983,5.9821,5.982,5.9815,5.9812,5.9809,5.9766,5.973,5.9798,5.9739,5.9781,5.9783,5.9797,5.9797,5.9948,5.98,5.98,5.98,5.98,0,5.9988,6.0018,5.9954,5.997,6.0001,5.9949,5.9982,5.9959,5.9939,5.995,5.9895,5.9907,5.985,5.9857,5.9824,5.985,5.985,5.9834,5.9824,5.9838,5.984,5.9836,5.9829,5.9803,5.9803,5.9802,5.9801,0,6.012,6.0078,6.0103,6.0063,6.0054,6.0079,6.0045,6.0058,6.0029,6.0044,6.0045,5.9999,6.0004,5.9961,5.9958,5.9935,5.9977,5.9957,5.9983,5.9977,6.0021,6.0018,6.0174,6.0192,6.0035,6.0037,6.0038,0,6.0193,6.0214,6.0177,6.018,6.0167,6.0173,6.0171,6.0121,6.0121,6.01,6.0116,6.0116,6.0113,6.0123,6.009,6.0087,6.0066,6.0121,6.0065,6.0078,6.0066,6.0064,6.0066,6.0133,6.0135,6.0136,6.0138,0,6.0327,6.0306,6.0305,6.0298,6.0297,6.0289,6.0277,6.0283,6.0228,6.0232,6.0235,6.0233,6.0229,6.023,6.022,6.0204,6.0162,6.0156,6.0165,6.0179,6.0192,6.0185,6.0014,6.0152,6.0151,6.015,6.0149,6.0148,6.0431,6.0447,6.0423,6.0424,6.041,6.04,6.0411,6.0383,6.0385,6.0377,6.0348,6.0356,6.0336,6.0319,6.0307,6.0313,6.0286,6.03,6.0304,6.0308,6.0315,6.0193,6.0312,6.0311,6.0311,6.031,6.031,0,6.0561,6.0543,6.0545,6.053,6.0531,6.0491,6.0476,6.048,6.0488,6.0472,6.047,6.0474,6.0474,6.0442,6.0438,6.0449,6.043,6.045,6.0448,6.0445,6.034,6.0332,6.0466,6.0466,6.0465,6.0465,6.0465,6.0465,6.0629,6.0653,6.0629,6.0646,6.0627,6.0635,6.063,6.0621,6.0607,6.0614,6.0614,6.0593,6.057,6.0564,6.0563,6.0553,6.0554,6.0581,6.0565,6.0467,6.0452,6.0438,6.0429,6.0582,6.0582,6.0668,6.0669,6.067]}]]